When you browse on this site, cookies collect data to enhance your experience and personalize the content and advertising you see.
Visit our Privacy Policy to learn more. By continuing to use the site, you agree to this use of cookies and data.
  • In Latvia
  • List of Countries
  • For 7 days
  • Water Temperature
  • Weather Map
  • Weather Widgets
  • user-avatar
    Login

    Hourly Weather Tulsa

    Today, 23 October, Wednesday

    Time Temperature Precipitation Wind Pressure Humidity
    00:00 +12°C° 0 mm 4 mps 743 mmHg 52%
    01:00 +12°C° 0 mm 4 mps 743 mmHg 50%
    02:00 +12°C° 0 mm 5 mps 743 mmHg 49%
    03:00 +11°C° 0 mm 6 mps 742 mmHg 48%
    04:00 +11°C° 0 mm 6 mps 742 mmHg 47%
    05:00 +11°C° 0 mm 7 mps 742 mmHg 46%
    06:00 +11°C° 0 mm 7 mps 742 mmHg 41%
    07:00 +12°C° 0 mm 8 mps 742 mmHg 41%
    08:00 +15°C° 0 mm 9 mps 742 mmHg 41%
    09:00 +16°C° 0 mm 10 mps 742 mmHg 41%
    10:00 +17°C° 0 mm 10 mps 742 mmHg 41%
    11:00 +19°C° 0 mm 9 mps 742 mmHg 41%
    12:00 +21°C° 0 mm 9 mps 742 mmHg 40%
    13:00 +22°C° 0 mm 9 mps 742 mmHg 43%
    14:00 +22°C° 0 mm 8 mps 741 mmHg 46%
    15:00 +23°C° 0 mm 7 mps 741 mmHg 48%
    16:00 +22°C° 0 mm 6 mps 741 mmHg 52%
    17:00 +21°C° 0 mm 5 mps 742 mmHg 56%
    18:00 +20°C° 0 mm 4 mps 742 mmHg 60%
    19:00 +19°C° 0.2 mm 3 mps 742 mmHg 61%
    20:00 +18°C° 0.2 mm 3 mps 743 mmHg 62%
    21:00 +17°C° 0.2 mm 2 mps 743 mmHg 64%
    22:00 +16°C° 1.2 mm 2 mps 743 mmHg 70%
    23:00 +16°C° 1.2 mm 2 mps 743 mmHg 77%

    Tomorrow, 24 October, Thursday

    Time Temperature Precipitation Wind Pressure Humidity
    00:00 +15°C° 1.2 mm 2 mps 743 mmHg 83%
    01:00 +15°C° 1.6 mm 2 mps 744 mmHg 86%
    02:00 +13°C° 1.6 mm 3 mps 744 mmHg 89%
    03:00 +13°C° 1.6 mm 3 mps 744 mmHg 91%
    04:00 +12°C° 1.3 mm 4 mps 744 mmHg 92%
    05:00 +12°C° 1.3 mm 4 mps 745 mmHg 92%
    06:00 +12°C° 1.3 mm 4 mps 745 mmHg 93%
    07:00 +10°C° 0.7 mm 5 mps 746 mmHg 91%
    08:00 +10°C° 0.7 mm 6 mps 746 mmHg 89%
    09:00 +9°C° 0.7 mm 8 mps 747 mmHg 87%
    10:00 +9°C° 0.5 mm 8 mps 747 mmHg 87%
    11:00 +9°C° 0.5 mm 8 mps 748 mmHg 87%
    12:00 +7°C° 0.5 mm 8 mps 748 mmHg 87%
    13:00 +7°C° 0 mm 8 mps 747 mmHg 87%
    14:00 +7°C° 0 mm 8 mps 747 mmHg 86%
    15:00 +7°C° 0 mm 9 mps 747 mmHg 86%
    16:00 +7°C° 0.9 mm 8 mps 747 mmHg 87%
    17:00 +7°C° 0.9 mm 8 mps 747 mmHg 88%
    18:00 +6°C° 0.9 mm 8 mps 748 mmHg 89%
    19:00 +6°C° 2.1 mm 8 mps 748 mmHg 89%
    20:00 +6°C° 2.1 mm 8 mps 748 mmHg 90%
    21:00 +6°C° 2.1 mm 8 mps 748 mmHg 90%
    22:00 +6°C° 0.8 mm 8 mps 748 mmHg 91%
    23:00 +6°C° 0.8 mm 8 mps 748 mmHg 91%

    Day after tomorrow, 25 October, Friday

    Time Temperature Precipitation Wind Pressure Humidity
    00:00 +6°C° 0.8 mm 7 mps 748 mmHg 91%
    01:00 +6°C° 1 mm 7 mps 748 mmHg 91%
    02:00 +6°C° 1 mm 7 mps 748 mmHg 91%
    03:00 +6°C° 1 mm 7 mps 748 mmHg 92%
    04:00 +6°C° 1.7 mm 7 mps 748 mmHg 92%
    05:00 +6°C° 1.7 mm 7 mps 748 mmHg 92%
    06:00 +6°C° 1.7 mm 7 mps 748 mmHg 92%
    07:00 +6°C° 1.5 mm 7 mps 749 mmHg 92%
    08:00 +5°C° 1.5 mm 7 mps 749 mmHg 91%
    09:00 +5°C° 1.5 mm 6 mps 749 mmHg 91%
    10:00 +7°C° 0.6 mm 6 mps 749 mmHg 91%
    11:00 +7°C° 0.6 mm 6 mps 749 mmHg 91%
    12:00 +7°C° 0.6 mm 5 mps 748 mmHg 91%
    13:00 +7°C° 0.4 mm 5 mps 748 mmHg 91%
    14:00 +7°C° 0.4 mm 5 mps 747 mmHg 91%
    15:00 +7°C° 0.4 mm 5 mps 746 mmHg 92%
    16:00 +7°C° 0.5 mm 5 mps 746 mmHg 92%
    17:00 +7°C° 0.5 mm 5 mps 746 mmHg 92%
    18:00 +7°C° 0.5 mm 5 mps 746 mmHg 92%
    19:00 +7°C° 0.7 mm 4 mps 745 mmHg 92%
    20:00 +7°C° 0.7 mm 4 mps 745 mmHg 92%
    21:00 +8°C° 0.7 mm 4 mps 745 mmHg 93%
    22:00 +8°C° 0.3 mm 4 mps 744 mmHg 92%
    23:00 +8°C° 0.3 mm 4 mps 744 mmHg 92%

    26 October, Saturday

    Time Temperature Precipitation Wind Pressure Humidity
    00:00 +8°C° 0.3 mm 4 mps 744 mmHg 91%
    01:00 +8°C° 0.5 mm 4 mps 743 mmHg 91%
    02:00 +8°C° 0.5 mm 5 mps 742 mmHg 90%
    03:00 +8°C° 0.5 mm 5 mps 742 mmHg 90%
    04:00 +7°C° 0.2 mm 4 mps 741 mmHg 89%
    05:00 +7°C° 0.2 mm 4 mps 741 mmHg 89%
    06:00 +7°C° 0.2 mm 4 mps 740 mmHg 88%
    07:00 +8°C° 0 mm 3 mps 741 mmHg 86%
    08:00 +9°C° 0 mm 3 mps 741 mmHg 83%
    09:00 +10°C° 0 mm 3 mps 741 mmHg 80%
    10:00 +12°C° 0 mm 3 mps 741 mmHg 74%
    11:00 +13°C° 0 mm 3 mps 741 mmHg 69%
    12:00 +16°C° 0 mm 3 mps 740 mmHg 64%
    13:00 +17°C° 0 mm 2 mps 740 mmHg 61%
    14:00 +17°C° 0 mm 2 mps 739 mmHg 59%
    15:00 +19°C° 0 mm 1 mps 738 mmHg 56%
    16:00 +18°C° 0 mm 1 mps 738 mmHg 61%
    17:00 +15°C° 0 mm 1 mps 738 mmHg 67%
    18:00 +14°C° 0 mm 1 mps 738 mmHg 72%
    19:00 +14°C° 0 mm 1 mps 738 mmHg 74%
    20:00 +13°C° 0 mm 1 mps 738 mmHg 76%
    21:00 +13°C° 0 mm 2 mps 739 mmHg 79%
    22:00 +12°C° 0 mm 2 mps 739 mmHg 81%
    23:00 +12°C° 0 mm 2 mps 739 mmHg 82%

    27 October, Sunday

    Time Temperature Precipitation Wind Pressure Humidity
    00:00 +12°C° 0 mm 2 mps 739 mmHg 84%
    01:00 +10°C° 0 mm 2 mps 739 mmHg 86%
    02:00 +10°C° 0 mm 2 mps 739 mmHg 88%
    03:00 +10°C° 0 mm 2 mps 739 mmHg 89%
    04:00 +9°C° 0 mm 2 mps 739 mmHg 90%
    05:00 +9°C° 0 mm 2 mps 739 mmHg 91%
    06:00 +9°C° 0 mm 2 mps 740 mmHg 91%
    07:00 +10°C° 0 mm 2 mps 740 mmHg 88%
    08:00 +12°C° 0 mm 2 mps 741 mmHg 84%
    09:00 +13°C° 0 mm 3 mps 741 mmHg 80%
    10:00 +14°C° 0 mm 3 mps 741 mmHg 73%
    11:00 +17°C° 0 mm 2 mps 741 mmHg 65%
    12:00 +19°C° 0 mm 2 mps 741 mmHg 58%
    13:00 +19°C° 0 mm 2 mps 741 mmHg 55%
    14:00 +21°C° 0 mm 1 mps 740 mmHg 52%
    15:00 +22°C° 0 mm 1 mps 740 mmHg 49%
    16:00 +18°C° 0 mm 3 mps 741 mmHg 55%
    17:00 +15°C° 0 mm 4 mps 741 mmHg 61%
    18:00 +13°C° 0 mm 6 mps 742 mmHg 67%
    19:00 +11°C° 0 mm 7 mps 742 mmHg 68%
    20:00 +10°C° 0 mm 8 mps 743 mmHg 69%
    21:00 +7°C° 0 mm 8 mps 744 mmHg 70%
    22:00 +6°C° 0.1 mm 8 mps 744 mmHg 72%
    23:00 +5°C° 0.1 mm 8 mps 745 mmHg 74%

    28 October, Monday

    Time Temperature Precipitation Wind Pressure Humidity
    00:00 +4°C° 0.1 mm 8 mps 745 mmHg 77%
    01:00 +4°C° 0.2 mm 8 mps 745 mmHg 77%
    02:00 +4°C° 0.2 mm 8 mps 746 mmHg 77%
    03:00 +2°C° 0.2 mm 8 mps 746 mmHg 78%
    04:00 +1°C° 0.3 mm 8 mps 746 mmHg 79%
    05:00 +2°C° 0.3 mm 7 mps 747 mmHg 81%
    06:00 0°C° 0.3 mm 7 mps 747 mmHg 83%
    07:00 0°C° 0.3 mm 7 mps 748 mmHg 75%
    08:00 +2°C° 0.3 mm 6 mps 749 mmHg 67%
    09:00 +3°C° 0.3 mm 5 mps 749 mmHg 59%
    10:00 +4°C° 0 mm 6 mps 749 mmHg 53%
    11:00 +5°C° 0 mm 6 mps 748 mmHg 46%
    12:00 +5°C° 0 mm 6 mps 748 mmHg 40%
    13:00 +7°C° 0 mm 5 mps 748 mmHg 39%
    14:00 +7°C° 0 mm 5 mps 747 mmHg 38%
    15:00 +8°C° 0 mm 5 mps 747 mmHg 38%
    16:00 +7°C° 0 mm 4 mps 747 mmHg 41%
    17:00 +7°C° 0 mm 3 mps 746 mmHg 45%
    18:00 +6°C° 0 mm 2 mps 746 mmHg 49%
    19:00 +6°C° 0 mm 2 mps 746 mmHg 49%
    20:00 +5°C° 0 mm 2 mps 747 mmHg 50%
    21:00 +5°C° 0 mm 2 mps 747 mmHg 50%
    22:00 +4°C° 0 mm 3 mps 747 mmHg 51%
    23:00 +3°C° 0 mm 3 mps 747 mmHg 52%

    29 October, Tuesday

    Time Temperature Precipitation Wind Pressure Humidity
    00:00 +3°C° 0 mm 3 mps 746 mmHg 53%
    01:00 +3°C° 0 mm 3 mps 747 mmHg 52%
    02:00 +3°C° 0 mm 3 mps 747 mmHg 51%
    03:00 +3°C° 0 mm 4 mps 747 mmHg 50%
    04:00 +3°C° 0 mm 4 mps 747 mmHg 52%
    05:00 +1°C° 0 mm 4 mps 748 mmHg 54%
    06:00 +1°C° 0 mm 4 mps 749 mmHg 56%
    07:00 +1°C° 0 mm 4 mps 749 mmHg 56%
    08:00 +3°C° 0 mm 4 mps 750 mmHg 56%
    09:00 +4°C° 0 mm 4 mps 751 mmHg 56%
    10:00 +5°C° 0 mm 4 mps 751 mmHg 50%
    11:00 +6°C° 0 mm 4 mps 751 mmHg 45%
    12:00 +8°C° 0 mm 3 mps 751 mmHg 39%
    13:00 +8°C° 0 mm 3 mps 750 mmHg 38%
    14:00 +9°C° 0 mm 3 mps 750 mmHg 37%
    15:00 +9°C° 0 mm 3 mps 750 mmHg 36%
    16:00 +8°C° 0 mm 3 mps 750 mmHg 39%
    17:00 +5°C° 0 mm 3 mps 750 mmHg 42%
    18:00 +4°C° 0 mm 3 mps 750 mmHg 45%
    19:00 +3°C° 0 mm 3 mps 751 mmHg 44%
    20:00 +3°C° 0 mm 3 mps 751 mmHg 44%
    21:00 +2°C° 0 mm 3 mps 752 mmHg 44%
    22:00 +3°C° 0 mm 2 mps 752 mmHg 44%
    23:00 +2°C° 0 mm 2 mps 753 mmHg 44%
    Show more